CZ-6A DEB

Satellite information

Favourite Embed

Satellite Type and Status

DEBRISIN ORBIT

Key statistics

Satellite CZ-6A DEB at a glance.

Uptime

969

Days in orbit

Revolutions

≈ 14.2

Per day

Orbit

SSO

Sun Synchronous Orbit

Inclination

98.8

Latest

Satellite identification and parameters

Extended collection of information and parameters for CZ-6A DEB.

Object identification

Identified? True

Debris? True

Object name: CZ-6A DEB

International designator: 2022-151AJA

Object number (NORAD): 58432

Object ID (CCSDS): 58432

Country: PEOPLES REPUBLIC OF CHINA (PRC)

Current information (Y/N): Y

RCS size: SMALL

Orbital parameters

Period: 101.248 minutes

Inclination: 98.8134 deg

SMA: 7195.875 km

Apoapsis: 825.701 km

Periapsis: 809.779 km

RAAN: 201.4196 deg

Eccentricy: 0.0011063

Argument of periapsis: 282.573 deg

Mean anomaly: 77.421 deg

Mean motion: 14.22254568 rev/day

Mean motion (dot): 0.00000671 rev/day2

B* drag term: 0.00032221 1/REarth

Two-line elements (TLE)

Creation date: July 1, 2025, 2:15 a.m.

Reference frame: TEME

Reference center: EARTH

Epoch: June 30, 2025, 6:44 p.m. UTC

TLE line 0: 0 CZ-6A DEB

TLE line 1: 1 58432U 22151AJA 25181.78102934 .00000671 00000-0 32221-3 0 9991

TLE line 2: 2 58432 98.8134 201.4196 0011063 282.5730 77.4210 14.22254568111326

Live tracking on map

Real-time ground track for satellite CZ-6A DEB.

In-orbit conjunctions

A list of the most updated potential collisions computed for object CZ-6A DEB.

Target Orbit TCA Probability of collision Miss distance Type
CZ-6A DEB LEO 2025-05-01 05:45:06 0.0001160615 296.0 (m) DEBRIS
CZ-6A DEB LEO 2025-02-24 15:31:58 0.0003150753 891.0 (m) DEBRIS
FENGYUN 1C DEB SSO 2024-11-16 11:53:34 0.0001266222 622.0 (m) DEBRIS

Associated space launch

Chinese satellite reported for atmospheric/ocean/environmental/spatial parameter research purposes, details TBD.

CZ-6A DEB was lifted into orbit during the mission ‘Long March 6A | Yunhai 3’, on board a Long March 6A space rocket.

The launch took place on Nov. 11, 2022, 10:52 p.m. from Launch Complex 9A.

For more information about the launch, click the button.

Launch to space Long March 6A | Yunhai 3
Long March 6A | Yunhai 3

Agency: N/A

Status: Launch Successful

Launch date: Nov. 11, 2022, 10:52 p.m. UTC

Rocket: Long March 6A

Launch pad: Launch Complex 9A

Location: Taiyuan Satellite Launch Center, People's Republic of China

...

Latest news about this satellite

There are no fresh news available about this satellite. Check back as we update our databases every day.


Newsletter sign-up

Weekly statistics, charts and insights to help you stay on top of the space industry.